Weather History for KTYS - July, 2012

Change the Weather History Date:

Friday, July 20, 2012

  Actual Average Record
Temperature  
Mean Temperature 77 °F 79 °F  
Max Temperature 85 °F 88 °F 99 °F (1926)
Min Temperature 69 °F 69 °F 60 °F (1984)
Degree Days  
Heating Degree Days 0 0  
Month to date heating degree days 0 0  
Since 1 June heating degree days 3 4  
Since 1 July heating degree days 0 0  
Cooling Degree Days 12 14  
Month to date cooling degree days 321 270  
Year to date cooling degree days 976 737  
Since 1 June cooling degree days 663 575  
Growing Degree Days 26 (Base 50)    
Moisture  
Dew Point 69 °F    
Average Humidity 79    
Maximum Humidity 97    
Minimum Humidity 61    
Precipitation  
Precipitation 1.64 in 0.17 in 2.15 in (1921)
Month to date precipitation 5.54 3.37  
Year to date precipitation 31.11 28.62  
Snow  
Snow 0.00 in 0.00 in - ()
Month to date snowfall 0.0 0.0  
Since 1 June snowfall 0.0 0.0  
Since 1 July snowfall 0.0 0.0  
Snow Depth 0.00 in    
Sea Level Pressure  
Sea Level Pressure 29.97 in    
Wind  
Wind Speed 8 mph (WSW)    
Max Wind Speed 25 mph    
Max Gust Speed 33 mph    
Visibility 8 miles    
Events Fog , Rain , Thunderstorm    
T = Trace of Precipitation, MM = Missing Value Source: NWS Daily Summary

Daily Weather History Graph

Daily Weather History Graph

Search for Another Location

Airport or City:

Trip Planner

Search our weather history database for the weather conditions in past years. The results will help you decide how hot, cold, wet, or windy it might be!

Date:

Astronomy

Jul. 20, 2012 Rise Set
Actual Time 6:35 AM EDT 8:49 PM EDT
Civil Twilight 6:05 AM EDT 9:18 PM EDT
Nautical Twilight 5:30 AM EDT 9:53 PM EDT
Astronomical Twilight 4:51 AM EDT 10:32 PM EDT
Moon 8:06 AM EDT (7/20) 9:34 PM EDT (7/20)
Length of Visible Light 15h 12m
Length of Day
14h 14m
New Moon, 2% of the Moon is Illuminated
Jul 20
New Moon
Jul 26
First Quarter
Aug 1
Full
Aug 9
Last Quarter
Aug 17
New

Hourly Weather History & Observations

Time (EDT) Temp. Heat Index Dew Point Humidity Pressure Visibility Wind Dir Wind Speed Gust Speed Precip Events Conditions
12:16 AM 75.2 °F - 66.2 °F 73% 29.99 in 10.0 mi ENE 6.9 mph - N/A Thunderstorm Thunderstorm
12:53 AM 75.0 °F - 66.9 °F 76% 29.96 in 10.0 mi NNE 9.2 mph - N/A Thunderstorm Thunderstorm
1:02 AM 73.4 °F - 66.2 °F 78% 30.04 in 1.0 mi WNW 18.4 mph 28.8 mph 0.00 in Rain , Thunderstorm Heavy Thunderstorms and Rain
1:03 AM 71.6 °F - 68.0 °F 88% 30.04 in 0.8 mi NW 20.7 mph 28.8 mph 0.00 in Rain , Thunderstorm Heavy Thunderstorms and Rain
1:20 AM 69.8 °F - 66.2 °F 88% 30.04 in 0.5 mi NW 12.7 mph 29.9 mph 0.96 in Fog , Rain , Thunderstorm Heavy Thunderstorms and Rain
1:23 AM 69.8 °F - 68.0 °F 94% 30.04 in 1.0 mi NW 11.5 mph 29.9 mph 1.16 in Rain , Thunderstorm Heavy Thunderstorms and Rain
1:29 AM 69.8 °F - 66.2 °F 88% 30.03 in 2.0 mi NW 10.4 mph 19.6 mph 1.34 in Rain , Thunderstorm Heavy Thunderstorms and Rain
1:41 AM 69.8 °F - 66.2 °F 88% 30.04 in 3.0 mi WSW 4.6 mph - 1.43 in Rain , Thunderstorm Thunderstorms and Rain
1:46 AM 69.8 °F - 66.2 °F 88% 30.03 in 3.0 mi WSW 6.9 mph - 1.45 in Rain , Thunderstorm Light Thunderstorms and Rain
1:53 AM 69.1 °F - 68.0 °F 96% 29.99 in 3.0 mi SW 9.2 mph - 1.45 in Rain , Thunderstorm Light Thunderstorms and Rain
2:10 AM 69.8 °F - 66.2 °F 88% 30.02 in 7.0 mi SSW 8.1 mph - 0.00 in Rain Light Rain
2:53 AM 69.1 °F - 66.9 °F 93% 29.98 in 7.0 mi SW 8.1 mph - 0.02 in Rain Light Rain
3:53 AM 69.1 °F - 66.9 °F 93% 29.96 in 10.0 mi SSW 11.5 mph - 0.02 in Rain Light Rain
4:53 AM 70.0 °F - 68.0 °F 93% 29.95 in 10.0 mi SSW 10.4 mph - 0.04 in Rain Light Rain
5:53 AM 70.0 °F - 68.0 °F 93% 29.96 in 10.0 mi WSW 8.1 mph - 0.00 in   Mostly Cloudy
6:45 AM 69.8 °F - 69.8 °F 100% 29.99 in 10.0 mi WSW 8.1 mph - N/A   Mostly Cloudy
6:53 AM 70.0 °F - 68.0 °F 93% 29.96 in 10.0 mi WSW 8.1 mph - N/A   Mostly Cloudy
7:53 AM 71.1 °F - 69.1 °F 93% 29.95 in 10.0 mi SSW 6.9 mph - N/A   Scattered Clouds
8:53 AM 72.0 °F - 69.1 °F 91% 29.96 in 10.0 mi SW 6.9 mph - N/A   Scattered Clouds
9:53 AM 72.0 °F - 69.1 °F 91% 29.99 in 10.0 mi SW 4.6 mph - N/A   Mostly Cloudy
10:53 AM 77.0 °F - 69.1 °F 76% 29.98 in 10.0 mi SSW 10.4 mph - N/A   Mostly Cloudy
11:26 AM 78.8 °F - 69.8 °F 74% 30.01 in 10.0 mi WSW 8.1 mph - N/A   Mostly Cloudy
11:53 AM 79.0 °F - 70.0 °F 74% 29.98 in 10.0 mi Variable 3.5 mph - N/A   Mostly Cloudy
12:53 PM 80.1 °F 82.9 °F 69.1 °F 69% 29.97 in 10.0 mi SW 8.1 mph - N/A   Scattered Clouds
1:53 PM 81.0 °F 84.4 °F 70.0 °F 69% 29.97 in 10.0 mi WSW 5.8 mph - N/A   Scattered Clouds
2:53 PM 82.0 °F 86.3 °F 71.1 °F 69% 29.95 in 10.0 mi SSW 10.4 mph - N/A   Scattered Clouds
3:53 PM 82.9 °F 87.0 °F 70.0 °F 65% 29.94 in 10.0 mi SSW 8.1 mph - N/A   Scattered Clouds
4:53 PM 84.0 °F 88.4 °F 70.0 °F 63% 29.92 in 10.0 mi SW 6.9 mph - N/A   Scattered Clouds
5:53 PM 84.9 °F 90.1 °F 71.1 °F 63% 29.91 in 10.0 mi WSW 5.8 mph - N/A   Scattered Clouds
6:53 PM 84.0 °F 88.4 °F 70.0 °F 63% 29.90 in 10.0 mi WSW 8.1 mph - N/A   Scattered Clouds
7:53 PM 82.0 °F 85.9 °F 70.0 °F 67% 29.91 in 10.0 mi SSW 6.9 mph - N/A   Scattered Clouds
8:04 PM 82.4 °F 87.2 °F 71.6 °F 70% 29.95 in 10.0 mi SW 6.9 mph - N/A Thunderstorm Thunderstorm
8:53 PM 78.1 °F - 73.9 °F 87% 29.94 in 7.0 mi West 5.8 mph - 0.05 in Thunderstorm Thunderstorm
8:56 PM 77.0 °F - 73.4 °F 89% 29.97 in 8.0 mi West 8.1 mph - N/A   Scattered Clouds
9:13 PM 77.0 °F - 73.4 °F 89% 29.97 in 8.0 mi West 8.1 mph - N/A Thunderstorm Thunderstorm
9:51 PM 75.2 °F - 71.6 °F 89% 29.98 in 10.0 mi SW 4.6 mph - N/A   Scattered Clouds
9:53 PM 75.0 °F - 71.1 °F 87% 29.95 in 10.0 mi SW 4.6 mph - N/A   Scattered Clouds
10:53 PM 73.9 °F - 70.0 °F 87% 29.97 in 10.0 mi WSW 5.8 mph - N/A   Scattered Clouds
11:53 PM 73.0 °F - 69.1 °F 87% 29.97 in 10.0 mi NW 6.9 mph - 0.00 in Rain Light Rain